Regional Weather Roundup
Issued by NWS

Home | Current Version | Previous Version | Text Only | Print | Product List | Glossary Off
Versions: 1 2 3 4 5 6 7 8 9 10 11 12 13 14 15 16 17 18 19 20 21 22 23 24 25 26 27 28 29 30 31 32 33 34 35 36 37 38 39 40 41 42 43 44 45 46 47 48 49 50

000
ASUS43 KMPX 272001
RWRMN
WEATHER ROUNDUP FOR MINNESOTA
NATIONAL WEATHER SERVICE TWIN CITIES/CHANHASSEN MN
300 PM CDT SAT AUG 27 2016


NOTE: "FAIR" INDICATES FEW OR NO CLOUDS BELOW 12,000 FEET WITH NO
SIGNIFICANT WEATHER AND/OR OBSTRUCTIONS TO VISIBILITY. N/A MEANS
CURRENT SKY AND/OR WEATHER CONDITIONS ARE NOT AVAILABLE.

MNZ060>063-068>070-272100-
   Twin Cities Metro

CITY           SKY/WX    TMP DP  RH WIND       PRES   REMARKS
TWIN CITIES    CLOUDY    66  61  84 SE10      30.00F
ST PAUL        CLOUDY    64  62  93 SE7       30.01S
CRYSTAL        CLOUDY    67  59  75 S9        29.99F
BLAINE         CLOUDY    68  64  88 SE9       30.00S
LAKEVILLE      CLOUDY    63  63 100 SE6       30.01F FOG
EDEN PRAIRIE   CLOUDY    67  61  81 SE9       29.99F
LAKEVILLE      CLOUDY    63  63 100 SE6       30.01F FOG
SOUTH ST PAUL  CLOUDY    65  63  91 SE5       30.00F
LAKE ELMO      CLOUDY    64  61  88 SE6       30.02S
$$
MNZ001>005-007-008-013>017-022>024-027-028-272100-
   Northwest Minnesota

CITY           SKY/WX    TMP DP  RH WIND       PRES   REMARKS
BEMIDJI        RAIN      62  57  85 NW16      30.00S
HALLOCK        CLOUDY    70  61  73 S13G20    29.91S
ROSEAU         CLOUDY    59  54  82 S7        29.94F
WARROAD        CLOUDY    61  55  82 S3        29.96F
THIEF RVR FALL CLOUDY    58  56  93 S9        29.95S
CROOKSTON      CLOUDY    61  61 100 S10       29.93F
FOSSTON        TSTM      55  54  94 SE10      29.96F
DETROIT LAKES  CLOUDY    66  55  68 S6        29.98R
MOORHEAD       CLOUDY    68  61  77 S14       29.94F
PARK RAPIDS    CLOUDY    71  53  52 S13       29.98F
MAHNOMEN       TSTM      56  55  96 NE12G22   29.99R
$$
MNZ006-009>011-018-025>026-272100-
   North Central Minnesota

CITY           SKY/WX    TMP DP  RH WIND       PRES   REMARKS
BAUDETTE       LGT RAIN  58  56  93 S6        29.97F
FLAG ISLAND    DRIZZLE   61  57  88 SE5       29.95S
INTL FALLS     RAIN      61  58  90 S3        30.01S FOG
WASKISH        RAIN      59  57  94 CALM      30.01F
BIG FORK       LGT RAIN  63  59  88 CALM      30.01F
LONGVILLE      CLOUDY    70  57  64 S5        29.99S
GRAND RAPIDS   CLOUDY    69  55  60 SE8       30.01F
CRANE LAKE     CLOUDY    61  59  94 CALM      30.04F
ORR            CLOUDY    63  57  82 CALM      30.01S
COOK           CLOUDY    66  55  68 SE5       30.03F
WALKER         CLOUDY    65  57  75 S5        29.99S
$$
MNZ012-019>021-037-272100-
   Northeast Minnesota

CITY           SKY/WX    TMP DP  RH WIND       PRES   REMARKS
DULUTH         CLOUDY    64  58  80 SE9       30.04F
ELY            CLOUDY    64  52  63 S7        30.05S
HIBBING        CLOUDY    67  54  63 SE8       30.01F
EVELETH        CLOUDY    65  53  65 SE6       30.04F
DULUTH HARBOR  CLOUDY    64  61  88 E7        30.04F
TWO HARBORS    CLOUDY    68  61  77 CALM      30.03S
SILVER BAY     CLOUDY    64  57  77 NE3       30.04S
G MARAIS ARPRT CLOUDY    61  52  72 E3        30.09F
$$
MNZ029>031-032-039>041-046>048-054>057-064-272100-
   West Central Minnesota

CITY           SKY/WX    TMP DP  RH WIND       PRES   REMARKS
FERGUS FALLS   PTSUNNY   72  59  64 S12       29.98R THUNDER
WHEATON        MOSUNNY   73  63  68 SE10      29.97F
MORRIS         PTSUNNY   70  59  68 SE9       29.97S
ALEXANDRIA     CLOUDY    68  57  68 S10       30.00S
ELBOW LAKE     FAIR      70  59  69 S14       29.98S
WADENA         PTSUNNY   70  55  60 S9G17     29.98F
GLENWOOD       MOSUNNY   66  57  72 S10       30.00S
APPLETON       CLOUDY    68  59  73 S7        29.98S
BENSON         CLOUDY    66  57  72 S7        29.99S
ORTONVILLE     PTSUNNY   70  59  68 SE7       29.97S
MADISON        MOSUNNY   70  61  73 S6        29.98F
WILLMAR        CLOUDY    68  61  77 S3        30.00F
$$
MNZ033>034-036-042>043-049>051-058-059-272100-
   Central Minnesota

CITY           SKY/WX    TMP DP  RH WIND       PRES   REMARKS
ST CLOUD       CLOUDY    63  60  90 SE6       30.00F
SAUK CENTRE    CLOUDY    68  57  67 S9        29.99F
PAYNESVILLE    CLOUDY    66  58  75 SE7       29.99F
AITKIN         PTSUNNY   70  55  60 S8        29.99S
PINE RIVER     CLOUDY    68  57  68 S8        30.02S
BRAINERD       CLOUDY    67  57  70 SE8       30.00S
STAPLES        CLOUDY    66  55  68 S8        29.99S
LONG PRAIRIE   CLOUDY    64  55  72 E7        30.00F
LITTLE FALLS   CLOUDY    64  54  68 SE9       30.00S
LITCHFIELD     CLOUDY    66  63  88 CALM      30.00F
BUFFALO        CLOUDY    65  60  82 SE7       30.01S
MAPLE LAKE     DRIZZLE   64  62  94 CALM      30.01F
HUTCHINSON     CLOUDY    67  63  87 S5        30.00F
$$
MNZ037-044-045-052-053-272100-
   East Central Minnesota

CITY           SKY/WX    TMP DP  RH WIND       PRES   REMARKS
PRINCETON      CLOUDY    64  61  88 E3        30.00F
MORA           CLOUDY    64  59  82 SE6       30.03F
CAMBRIDGE      CLOUDY    64  57  77 CALM      29.99F
RUSH CITY      LGT RAIN  63  59  88 CALM      30.02F
MOOSE LAKE     CLOUDY    68  57  68 S6        30.00F
HINCKLEY       CLOUDY    64  61  88 SE3       30.02F
CLOQUET        CLOUDY    64  57  77 E6        30.03F
MCGREGOR       CLOUDY    68  59  73 SE10      30.00F
$$
MNZ071>073-080-081-089-090-097-098-272100-
   Southwest Minnesota

CITY           SKY/WX    TMP DP  RH WIND       PRES   REMARKS
MONTEVIDEO     CLOUDY    72  63  73 SW6       30.00F
GRANITE FALLS  CLOUDY    70  63  78 S5        30.00F
CANBY          MOSUNNY   72  61  67 SE8       29.99S
MARSHALL       CLOUDY    70  61  73 SW7       29.99F
REDWOOD FALLS  CLOUDY    69  61  75 S8        29.98F
OLIVIA         CLOUDY    70  63  78 SW7       29.99S
PIPESTONE      CLOUDY    70  61  73 SW9       30.01R
WINDOM         CLOUDY    70  63  78 SW8       30.01S
WORTHINGTON    CLOUDY    71  64  78 SW9       30.02S
JACKSON          N/A     70  61  73 SW8       30.02F
TRACY          CLOUDY    71  63  75 SW7       30.00S
$$
MNZ065>067-074>077-082>085-091>093-272100-
   South Central Minnesota

CITY           SKY/WX    TMP DP  RH WIND       PRES   REMARKS
MANKATO        CLOUDY    66  61  82 SW8       30.01S
NEW ULM          N/A     66  63  88 SW3       30.00S
ST JAMES       CLOUDY    64  59  82 S3        30.01F
FAIRMONT       CLOUDY    71  65  81 SW8       30.01F
GLENCOE        CLOUDY    68  64  89 SE6       30.00S
FARIBAULT      CLOUDY    64  64 100 CALM      30.01F
OWATONNA       CLOUDY    66  63  88 SW7       30.01F
WASECA         CLOUDY    64  63  94 SW6       30.02F
ALBERT LEA     CLOUDY    70  64  83 SW5         N/A
$$
MNZ078>079-086>088-094>096-272100-
   Southeast Minnesota

CITY           SKY/WX    TMP DP  RH WIND       PRES   REMARKS
ROCHESTER      CLOUDY    68  65  90 S6        30.03S
RED WING       CLOUDY    66  63  88 SE6       30.00F
DODGE CENTER   CLOUDY    66  64  94 SW6       30.02S
WINONA         CLOUDY    70  63  78 CALM      30.02S
AUSTIN         CLOUDY    70  64  83 SW6       30.02S
PRESTON        CLOUDY    67  63  85 S5        30.03F
$$
ABBREVIATIONS USED IN REMARKS
   TC - TEMPERATURES IN CELSIUS
  WCI - WIND CHILL INDEX
   HX - HEAT INDEX
  VSB - VISIBILITY
$$



USA.gov is the U.S. government's official web portal to all federal, state and local government web resources and services.